Temp
56 56 56 56 57 57 57 58 58 58 58 58 58 58 58 58 59 60 60 59 59 58 58 58 57 57 58 59 59 59 59 59 60 60 60 60 60 60 60 60 59 59 59 58 57 56 56 55 56 55 54 49
56 56 56 56 56 57 57 57 57 57 57 57 57 57 56 57 59 59 59 58 58 57 57 57 56 56 57 58 58 59 59 59 59 60 59 60 60 59 59 59 59 59 59 58 57 56 56 56 56 55 54 48
54 57 56 56 56 56 57 57 57 57 57 56 56 56 55 58 58 59 59 58 57 56 57 57 56 56 57 58 58 59 58 59 59 59 59 59 59 59 59 59 59 59 59 58 57 57 56 56 55 55 51 48
54 56 58 58 57 57 57 57 57 56 56 55 55 55 56 58 56 56 55 58 54 56 56 57 56 56 56 58 58 59 58 59 59 59 59 59 59 59 59 59 59 58 58 57 57 57 56 56 55 49 46 48
54 55 58 57 58 58 57 56 56 56 55 55 53 53 55 56 52 51 51 52 51 55 53 57 57 56 57 58 59 59 58 59 59 59 59 59 59 58 58 58 57 57 57 57 56 56 55 55 50 48 47 48
56 55 56 54 53 53 53 55 55 52 50 53 48 53 51 50 51 51 50 51 53 51 52 53 57 57 58 58 58 58 58 59 59 59 59 59 59 58 58 57 52 51 54 55 55 55 55 50 47 47 47 46
54 54 53 53 53 53 55 53 51 51 50 48 48 48 49 50 49 50 50 51 53 53 56 55 57 57 57 57 58 57 58 58 57 58 59 59 58 57 57 52 48 48 47 47 54 53 49 46 47 47 47 46
52 52 52 51 51 51 51 50 50 51 50 48 47 47 48 48 49 50 50 54 55 54 51 52 55 56 56 55 56 56 54 56 55 57 57 57 57 54 51 48 48 48 46 46 47 47 47 46 46 46 46 43
51 51 51 50 49 50 50 49 50 50 49 48 47 46 47 47 48 49 50 49 50 49 50 48 49 50 50 50 49 53 50 50 50 51 49 50 50 48 49 47 47 47 47 47 47 46 46 46 45 45 45 44
53 52 49 49 49 49 49 50 50 49 48 47 47 46 46 48 48 48 49 47 47 48 49 48 47 48 49 49 49 50 49 48 48 48 48 49 49 48 48 48 47 47 47 46 44 44 44 45 45 44 44 43
52 50 50 49 49 48 47 48 48 47 47 47 47 45 45 45 45 46 45 46 46 46 48 47 46 47 48 48 47 48 47 47 48 47 47 46 47 47 47 48 46 46 47 45 44 44 44 44 44 43 43 42
51 50 50 49 49 49 49 48 48 47 48 48 46 46 45 45 45 44 44 45 44 45 46 46 47 47 46 46 45 47 47 46 46 46 46 46 46 47 47 47 46 46 46 45 44 43 43 43 43 43 42 43
51 49 50 49 48 48 50 47 47 47 47 46 46 45 43 44 43 43 44 43 44 44 45 45 46 44 44 46 45 46 44 45 44 45 45 45 45 45 46 46 46 45 46 46 44 43 42 42 42 41 42 42
49 49 48 49 48 48 47 46 46 48 46 46 44 43 43 44 43 42 42 42 42 42 43 43 44 45 45 44 44 43 44 43 43 44 44 44 45 45 45 45 46 44 45 45 44 42 42 41 42 40 40 40
49 50 48 48 47 47 46 46 46 46 46 45 44 43 42 43 43 43 42 42 42 42 42 43 44 43 44 42 42 44 43 44 44 43 43 44 44 44 44 44 44 44 44 44 45 43 42 41 41 40 42 40
49 48 49 48 47 46 46 46 45 46 46 45 44 43 42 42 42 43 42 42 42 42 42 42 42 42 42 41 42 43 42 43 44 43 44 45 45 45 45 45 44 46 44 43 45 43 42 41 40 39 41 39
48 48 49 47 47 46 47 44 46 45 44 44 44 44 42 41 42 42 41 41 41 42 41 42 41 41 41 42 42 42 43 43 43 43 43 44 45 44 45 44 44 45 44 43 44 44 43 41 40 40 39 38
47 48 47 48 47 46 46 45 45 46 44 44 43 44 43 42 41 41 40 39 40 41 40 42 41 41 41 40 41 42 43 41 42 41 42 42 42 43 43 42 43 42 42 41 41 42 43 43 39 39 38 38
47 48 46 46 47 47 44 44 44 45 45 45 43 44 43 41 41 40 40 39 39 39 40 40 40 40 39 41 41 40 41 41 42 41 40 40 40 41 40 41 42 42 42 41 42 42 43 42 41 39 38 38
47 47 46 46 47 44 45 43 43 43 45 44 43 44 42 40 40 40 39 38 38 38 39 38 40 39 40 40 40 40 40 41 40 40 40 40 40 38 39 40 40 42 41 41 41 42 41 41 42 38 38 37
47 47 47 46 46 45 45 43 42 44 44 44 43 43 41 39 39 40 39 38 37 38 39 39 40 39 40 39 38 38 39 39 40 37 39 38 39 38 37 38 39 40 40 40 41 41 41 41 42 39 36 36
46 46 46 45 45 45 43 43 43 43 43 42 42 42 39 39 38 40 38 37 37 37 38 38 39 38 38 38 38 38 39 38 38 37 36 36 37 38 37 37 38 38 38 39 39 40 41 42 41 37 36 36
46 46 46 45 45 44 44 43 43 43 43 42 42 38 39 39 37 38 38 37 37 36 36 37 38 38 37 37 37 38 38 36 36 35 35 35 35 37 38 37 39 38 37 38 38 38 40 42 42 38 36 35
45 45 43 43 44 43 43 44 43 44 42 42 41 39 39 39 36 38 36 36 35 35 35 35 37 37 37 36 36 36 35 34 33 33 33 33 34 35 37 39 39 37 36 36 36 38 40 41 42 38 36 35
45 45 45 45 45 44 45 45 44 43 43 42 39 37 39 39 37 38 36 36 36 34 35 35 35 36 35 35 35 34 34 35 34 34 34 33 34 34 34 35 38 36 36 34 33 36 36 38 41 40 37 36
46 45 44 43 42 43 43 43 43 42 41 42 40 37 38 37 37 37 35 35 35 34 34 32 33 34 34 34 34 33 35 35 35 34 32 32 30 33 32 32 36 36 34 29 28 27 29 32 36 35 36 34
43 46 46 44 43 42 40 43 43 44 43 40 38 37 36 36 36 35 33 34 34 33 32 31 31 32 33 33 33 32 32 33 32 32 31 30 29 28 31 33 36 34 33 24 28 29 27 26 27 33 30 34
46 45 45 44 43 42 42 42 42 43 43 41 40 36 37 34 33 34 32 33 33 31 31 31 29 29 30 30 32 31 30 30 30 29 28 28 28 28 25 28 27 33 33 28 26 21 22 22 24 25 27 27
43 44 43 42 41 41 40 40 40 39 39 38 40 36 34 34 32 32 31 32 31 31 30 30 29 28 28 29 29 30 29 29 29 29 29 28 27 26 24 24 24 26 31 30 31 23 21 22 22 22 23 27
43 41 41 41 40 38 39 35 35 34 35 37 36 36 34 33 32 31 31 30 31 31 31 29 29 28 25 25 26 26 26 27 29 27 27 27 25 26 27 25 23 24 28 28 27 25 25 24 22 20 22 23
42 41 41 41 41 40 38 36 38 38 38 38 38 36 34 34 32 31 30 30 30 31 30 29 28 27 24 23 23 25 24 25 24 24 25 24 25 23 26 25 22 22 24 26 24 24 23 23 23 23 21 18
MSLP
1027.31 1027.19 1027.10 1027.03 1026.91 1026.74 1026.58 1026.43 1026.27 1026.15 1026.03 1025.91 1025.82 1025.70 1025.62 1025.58 1025.43 1025.27 1025.19 1025.10 1025.06 1024.98 1024.82 1024.67 1024.46 1024.31 1024.06 1023.83 1023.71 1023.54 1023.39 1023.18 1022.98 1022.78 1022.54 1022.34 1022.15 1021.95 1021.78 1021.66 1021.54 1021.42 1021.30 1021.27 1021.15 1021.07 1020.91 1020.74 1020.54 1020.39 1020.22 1020.18
1027.39 1027.34 1027.22 1027.15 1026.98 1026.82 1026.70 1026.55 1026.43 1026.34 1026.22 1026.15 1026.06 1025.98 1025.91 1025.74 1025.55 1025.43 1025.39 1025.34 1025.27 1025.10 1024.94 1024.79 1024.67 1024.51 1024.22 1024.03 1023.86 1023.66 1023.54 1023.30 1023.10 1022.86 1022.66 1022.47 1022.27 1022.10 1021.98 1021.83 1021.66 1021.47 1021.34 1021.30 1021.22 1021.18 1021.07 1020.91 1020.66 1020.54 1020.39 1020.22
1027.34 1027.34 1027.27 1027.15 1027.03 1026.91 1026.79 1026.67 1026.58 1026.51 1026.46 1026.43 1026.34 1026.27 1026.06 1025.82 1025.70 1025.58 1025.51 1025.46 1025.34 1025.19 1025.03 1024.86 1024.74 1024.62 1024.43 1024.19 1024.03 1023.83 1023.62 1023.39 1023.15 1022.95 1022.74 1022.54 1022.39 1022.27 1022.10 1021.95 1021.74 1021.59 1021.51 1021.39 1021.34 1021.27 1021.15 1020.95 1020.83 1020.66 1020.47 1020.27
1027.34 1027.27 1027.15 1027.10 1027.03 1026.91 1026.86 1026.79 1026.70 1026.70 1026.67 1026.67 1026.58 1026.43 1026.19 1025.94 1025.94 1025.74 1025.55 1025.51 1025.46 1025.27 1025.10 1024.98 1024.86 1024.79 1024.58 1024.31 1024.10 1023.86 1023.66 1023.39 1023.15 1022.95 1022.78 1022.62 1022.51 1022.39 1022.27 1022.15 1021.91 1021.78 1021.71 1021.59 1021.54 1021.39 1021.30 1021.03 1020.95 1020.74 1020.54 1020.39
1027.27 1027.19 1027.06 1027.03 1026.98 1026.94 1026.94 1026.94 1026.86 1026.82 1026.91 1026.82 1026.79 1026.58 1026.39 1026.15 1026.06 1025.91 1025.62 1025.55 1025.51 1025.34 1025.22 1025.03 1024.91 1024.82 1024.62 1024.34 1024.10 1023.91 1023.66 1023.39 1023.18 1023.07 1022.86 1022.74 1022.62 1022.51 1022.42 1022.34 1022.22 1022.03 1021.95 1021.83 1021.74 1021.54 1021.42 1021.27 1021.07 1020.83 1020.62 1020.54
1027.19 1027.06 1027.03 1027.03 1026.98 1026.94 1026.98 1026.98 1026.98 1026.98 1026.94 1026.91 1026.91 1026.74 1026.55 1026.31 1026.10 1025.94 1025.67 1025.62 1025.55 1025.43 1025.27 1025.10 1024.94 1024.82 1024.62 1024.43 1024.15 1023.95 1023.66 1023.47 1023.30 1023.15 1022.98 1022.86 1022.78 1022.71 1022.59 1022.54 1022.51 1022.30 1022.22 1022.10 1021.95 1021.74 1021.54 1021.42 1021.22 1020.95 1020.74 1020.71
1027.19 1027.06 1027.03 1027.03 1027.03 1026.98 1026.98 1027.06 1027.03 1026.98 1026.94 1026.94 1026.94 1026.82 1026.62 1026.43 1026.19 1025.98 1025.74 1025.67 1025.62 1025.46 1025.31 1025.22 1025.03 1024.82 1024.67 1024.46 1024.19 1023.98 1023.74 1023.54 1023.42 1023.27 1023.10 1022.98 1022.95 1022.91 1022.83 1022.78 1022.71 1022.54 1022.42 1022.34 1022.10 1021.91 1021.74 1021.59 1021.39 1021.10 1020.95 1020.91
1027.27 1027.15 1027.06 1027.15 1027.15 1027.06 1027.03 1027.06 1027.03 1026.94 1026.94 1026.98 1026.98 1026.91 1026.70 1026.55 1026.22 1025.98 1025.82 1025.79 1025.67 1025.58 1025.46 1025.34 1025.19 1024.94 1024.74 1024.55 1024.31 1024.10 1023.86 1023.71 1023.62 1023.42 1023.30 1023.18 1023.10 1023.10 1023.03 1022.95 1022.83 1022.74 1022.59 1022.42 1022.22 1022.07 1021.95 1021.74 1021.54 1021.30 1021.18 1021.22
1027.27 1027.19 1027.15 1027.22 1027.27 1027.19 1027.15 1027.15 1027.03 1026.98 1026.98 1027.03 1027.03 1026.94 1026.79 1026.55 1026.27 1026.10 1025.94 1025.91 1025.82 1025.70 1025.58 1025.46 1025.31 1025.10 1024.86 1024.67 1024.46 1024.27 1024.10 1023.98 1023.86 1023.66 1023.51 1023.39 1023.30 1023.22 1023.10 1022.98 1022.95 1022.86 1022.71 1022.51 1022.30 1022.18 1022.07 1021.86 1021.66 1021.54 1021.47 1021.47
1027.22 1027.27 1027.31 1027.34 1027.39 1027.31 1027.27 1027.19 1027.06 1027.06 1027.06 1027.06 1027.06 1027.03 1026.86 1026.67 1026.43 1026.27 1026.10 1026.10 1026.03 1025.86 1025.70 1025.58 1025.46 1025.27 1025.03 1024.86 1024.67 1024.51 1024.39 1024.27 1024.10 1023.91 1023.71 1023.54 1023.47 1023.30 1023.18 1023.07 1022.95 1022.86 1022.74 1022.51 1022.39 1022.27 1022.15 1021.98 1021.83 1021.74 1021.71 1021.71
1027.27 1027.34 1027.39 1027.43 1027.43 1027.39 1027.39 1027.31 1027.15 1027.15 1027.15 1027.10 1027.03 1027.03 1026.98 1026.86 1026.67 1026.46 1026.34 1026.31 1026.19 1026.06 1025.86 1025.74 1025.58 1025.39 1025.15 1024.98 1024.82 1024.70 1024.62 1024.51 1024.34 1024.15 1023.95 1023.78 1023.66 1023.54 1023.34 1023.15 1022.98 1022.86 1022.71 1022.54 1022.42 1022.30 1022.18 1022.07 1022.03 1021.95 1021.95 1021.91
1027.31 1027.34 1027.43 1027.46 1027.43 1027.39 1027.43 1027.34 1027.27 1027.27 1027.15 1027.10 1027.06 1027.06 1027.10 1027.03 1026.86 1026.67 1026.55 1026.46 1026.39 1026.19 1026.03 1025.82 1025.67 1025.51 1025.31 1025.15 1024.98 1024.94 1024.86 1024.79 1024.67 1024.46 1024.19 1023.98 1023.83 1023.66 1023.47 1023.22 1022.98 1022.86 1022.74 1022.54 1022.34 1022.27 1022.18 1022.15 1022.15 1022.18 1022.18 1022.15
1027.34 1027.43 1027.46 1027.55 1027.55 1027.46 1027.46 1027.39 1027.39 1027.34 1027.19 1027.19 1027.15 1027.15 1027.22 1027.15 1027.03 1026.82 1026.74 1026.67 1026.55 1026.34 1026.19 1025.94 1025.79 1025.62 1025.51 1025.34 1025.19 1025.15 1025.06 1025.03 1024.91 1024.62 1024.31 1024.06 1023.91 1023.74 1023.54 1023.30 1023.10 1022.95 1022.78 1022.54 1022.30 1022.22 1022.22 1022.27 1022.30 1022.34 1022.34 1022.27
1027.46 1027.55 1027.55 1027.55 1027.58 1027.51 1027.51 1027.51 1027.46 1027.34 1027.31 1027.27 1027.22 1027.31 1027.34 1027.27 1027.10 1027.03 1026.86 1026.79 1026.67 1026.46 1026.31 1026.06 1025.94 1025.79 1025.62 1025.51 1025.34 1025.31 1025.19 1025.06 1024.98 1024.70 1024.39 1024.19 1024.03 1023.83 1023.62 1023.39 1023.15 1022.95 1022.83 1022.59 1022.34 1022.22 1022.27 1022.30 1022.39 1022.42 1022.42 1022.30
1027.62 1027.62 1027.58 1027.62 1027.58 1027.55 1027.62 1027.62 1027.46 1027.39 1027.39 1027.34 1027.34 1027.46 1027.51 1027.39 1027.22 1027.10 1026.91 1026.82 1026.74 1026.67 1026.46 1026.22 1026.06 1025.91 1025.74 1025.62 1025.51 1025.43 1025.22 1025.10 1024.94 1024.70 1024.46 1024.27 1024.03 1023.83 1023.54 1023.30 1023.07 1022.91 1022.74 1022.54 1022.39 1022.27 1022.27 1022.34 1022.39 1022.42 1022.39 1022.22
1027.62 1027.62 1027.58 1027.62 1027.55 1027.55 1027.67 1027.67 1027.51 1027.43 1027.46 1027.46 1027.43 1027.46 1027.51 1027.46 1027.31 1027.15 1026.98 1026.94 1026.94 1026.82 1026.58 1026.34 1026.15 1025.94 1025.79 1025.67 1025.62 1025.46 1025.22 1025.03 1024.86 1024.62 1024.43 1024.27 1024.03 1023.78 1023.59 1023.34 1023.07 1022.91 1022.78 1022.59 1022.47 1022.39 1022.39 1022.39 1022.42 1022.39 1022.34 1022.18
1027.55 1027.55 1027.58 1027.58 1027.51 1027.55 1027.67 1027.58 1027.46 1027.46 1027.46 1027.46 1027.43 1027.43 1027.46 1027.46 1027.39 1027.31 1027.27 1027.22 1027.10 1026.94 1026.62 1026.34 1026.10 1025.91 1025.79 1025.74 1025.67 1025.46 1025.19 1025.03 1024.86 1024.58 1024.39 1024.27 1024.15 1023.95 1023.78 1023.54 1023.22 1023.03 1022.91 1022.74 1022.59 1022.51 1022.47 1022.39 1022.39 1022.34 1022.27 1022.18
1027.58 1027.46 1027.51 1027.46 1027.43 1027.46 1027.58 1027.46 1027.43 1027.43 1027.46 1027.46 1027.43 1027.39 1027.43 1027.51 1027.51 1027.51 1027.43 1027.39 1027.22 1026.98 1026.67 1026.39 1026.10 1025.94 1025.82 1025.82 1025.70 1025.51 1025.27 1025.15 1024.94 1024.74 1024.67 1024.58 1024.39 1024.22 1024.06 1023.83 1023.51 1023.22 1023.03 1022.86 1022.66 1022.59 1022.54 1022.42 1022.34 1022.27 1022.22 1022.10
1027.58 1027.51 1027.51 1027.46 1027.34 1027.39 1027.46 1027.46 1027.39 1027.39 1027.39 1027.43 1027.43 1027.39 1027.43 1027.51 1027.58 1027.55 1027.51 1027.43 1027.31 1027.06 1026.70 1026.43 1026.22 1026.03 1025.98 1025.94 1025.86 1025.67 1025.43 1025.27 1025.06 1024.98 1024.94 1024.82 1024.70 1024.43 1024.22 1023.98 1023.78 1023.42 1023.15 1022.98 1022.83 1022.66 1022.54 1022.47 1022.22 1022.10 1022.07 1021.98
1027.34 1027.34 1027.39 1027.34 1027.31 1027.39 1027.39 1027.43 1027.34 1027.31 1027.31 1027.34 1027.39 1027.39 1027.39 1027.51 1027.55 1027.51 1027.46 1027.43 1027.31 1027.10 1026.79 1026.55 1026.39 1026.22 1026.15 1026.10 1026.03 1025.82 1025.58 1025.39 1025.27 1025.19 1025.10 1025.03 1024.86 1024.62 1024.34 1024.15 1023.91 1023.54 1023.30 1023.15 1022.98 1022.78 1022.59 1022.34 1022.10 1021.95 1021.86 1021.83
1027.19 1027.19 1027.15 1027.15 1027.15 1027.22 1027.31 1027.34 1027.31 1027.19 1027.19 1027.27 1027.31 1027.31 1027.39 1027.46 1027.51 1027.43 1027.43 1027.43 1027.31 1027.15 1026.86 1026.67 1026.51 1026.39 1026.34 1026.31 1026.22 1026.03 1025.74 1025.55 1025.43 1025.34 1025.34 1025.22 1024.98 1024.74 1024.55 1024.34 1024.03 1023.62 1023.39 1023.27 1023.10 1022.78 1022.51 1022.15 1021.86 1021.71 1021.66 1021.62
1026.94 1026.94 1026.94 1026.98 1027.03 1027.06 1027.19 1027.22 1027.19 1027.10 1027.06 1027.15 1027.15 1027.22 1027.34 1027.46 1027.46 1027.39 1027.43 1027.39 1027.31 1027.15 1026.91 1026.74 1026.58 1026.51 1026.46 1026.46 1026.39 1026.15 1025.91 1025.67 1025.55 1025.51 1025.51 1025.34 1025.03 1024.82 1024.67 1024.43 1024.15 1023.71 1023.47 1023.34 1023.10 1022.74 1022.34 1021.91 1021.54 1021.34 1021.42 1021.39
1026.86 1026.86 1026.86 1026.82 1026.82 1026.86 1026.94 1026.98 1026.98 1026.94 1026.98 1026.98 1027.03 1027.19 1027.34 1027.39 1027.43 1027.34 1027.39 1027.34 1027.27 1027.15 1027.06 1026.91 1026.79 1026.62 1026.55 1026.55 1026.43 1026.27 1026.03 1025.82 1025.74 1025.67 1025.55 1025.39 1025.10 1024.91 1024.79 1024.43 1024.06 1023.66 1023.59 1023.42 1023.03 1022.59 1022.07 1021.54 1021.03 1021.03 1021.10 1021.22
1026.62 1026.51 1026.51 1026.58 1026.58 1026.74 1026.70 1026.70 1026.70 1026.74 1026.82 1026.86 1026.91 1027.10 1027.22 1027.31 1027.39 1027.34 1027.34 1027.31 1027.27 1027.22 1027.10 1027.10 1026.94 1026.74 1026.62 1026.51 1026.43 1026.27 1026.10 1025.94 1025.82 1025.70 1025.51 1025.34 1025.27 1025.03 1024.62 1024.34 1023.95 1023.71 1023.74 1023.54 1023.03 1022.18 1021.66 1021.34 1020.83 1020.71 1020.83 1020.95
1026.22 1026.22 1026.15 1026.10 1026.10 1026.10 1026.10 1026.31 1026.34 1026.46 1026.55 1026.67 1026.79 1026.98 1027.15 1027.22 1027.27 1027.27 1027.34 1027.27 1027.27 1027.27 1027.19 1027.10 1026.98 1026.82 1026.62 1026.51 1026.46 1026.34 1026.22 1025.94 1025.70 1025.55 1025.46 1025.39 1025.34 1025.15 1024.86 1024.58 1024.06 1023.86 1023.91 1023.59 1022.83 1022.39 1022.10 1021.27 1020.54 1020.30 1020.54 1020.78
1026.19 1026.06 1026.03 1026.22 1026.43 1026.43 1026.31 1026.22 1026.19 1026.22 1026.34 1026.51 1026.70 1026.91 1027.03 1027.15 1027.15 1027.22 1027.31 1027.27 1027.27 1027.27 1027.15 1027.15 1027.06 1026.91 1026.70 1026.58 1026.55 1026.46 1026.22 1025.86 1025.58 1025.46 1025.55 1025.55 1025.51 1025.31 1025.22 1024.94 1024.31 1024.10 1024.03 1023.86 1024.19 1023.83 1022.78 1021.66 1020.34 1020.59 1020.59 1020.66
1026.15 1025.98 1025.91 1026.06 1026.31 1026.46 1026.55 1026.34 1026.22 1026.22 1026.34 1026.51 1026.67 1026.79 1026.91 1026.98 1027.06 1027.15 1027.22 1027.19 1027.19 1027.19 1027.15 1027.10 1027.03 1026.94 1026.86 1026.70 1026.58 1026.51 1026.31 1025.94 1025.67 1025.58 1025.67 1025.74 1025.74 1025.62 1025.31 1025.03 1024.43 1024.31 1024.34 1024.70 1024.51 1024.03 1023.39 1021.34 1020.98 1020.51 1020.83 1020.51
1025.98 1025.98 1025.98 1026.10 1026.31 1026.46 1026.58 1026.55 1026.43 1026.31 1026.31 1026.43 1026.51 1026.62 1026.74 1026.86 1026.94 1027.06 1027.15 1027.06 1027.06 1027.06 1026.98 1026.94 1026.98 1026.98 1026.94 1026.82 1026.74 1026.58 1026.43 1026.06 1025.79 1025.70 1025.79 1025.82 1025.91 1025.82 1025.70 1025.39 1024.79 1024.55 1024.55 1024.55 1024.67 1023.51 1023.39 1022.86 1022.30 1021.51 1020.34 1022.15
1025.91 1025.98 1026.06 1026.06 1026.22 1026.43 1026.51 1026.46 1026.43 1026.43 1026.27 1026.31 1026.43 1026.51 1026.62 1026.70 1026.82 1026.91 1026.98 1026.94 1026.94 1026.94 1026.91 1026.91 1026.91 1026.91 1026.94 1026.98 1026.86 1026.70 1026.39 1026.10 1025.94 1025.86 1025.86 1025.91 1026.03 1026.06 1025.98 1025.86 1025.46 1024.74 1024.58 1024.58 1024.62 1024.82 1024.39 1022.59 1021.34 1021.22 1022.66 1022.71
1025.74 1025.91 1025.91 1025.86 1025.94 1026.19 1026.43 1026.43 1026.43 1026.39 1026.19 1026.19 1026.34 1026.27 1026.22 1026.51 1026.70 1026.79 1026.79 1026.82 1026.82 1026.82 1026.86 1026.86 1026.86 1026.86 1026.94 1026.94 1026.82 1026.67 1026.43 1026.27 1026.15 1026.03 1026.03 1026.06 1026.19 1026.22 1026.06 1025.94 1025.82 1025.39 1024.79 1024.55 1024.62 1024.55 1024.55 1024.43 1024.03 1023.74 1023.71 1023.51
1025.67 1025.86 1025.82 1025.79 1025.70 1025.70 1025.74 1025.86 1025.70 1025.46 1025.51 1025.58 1025.70 1025.91 1026.10 1026.27 1026.51 1026.55 1026.58 1026.62 1026.67 1026.74 1026.82 1026.91 1026.94 1026.94 1027.03 1027.03 1026.94 1026.74 1026.58 1026.43 1026.22 1026.15 1026.19 1026.19 1026.22 1026.34 1026.43 1026.31 1025.98 1025.51 1025.06 1024.82 1024.43 1024.62 1024.55 1024.51 1024.51 1024.51 1024.51 1023.66
Wind_Speed
11 11 12 11 12 12 13 14 15 15 16 16 16 16 16 15 14 14 16 15 15 15 15 17 16 16 16 17 17 17 17 17 17 18 17 18 18 18 18 17 16 14 16 16 17 17 18 17 15 16 14 5
10 8 8 10 11 12 13 14 15 15 15 15 15 15 14 14 13 11 14 14 13 13 13 14 16 16 17 17 17 17 17 16 16 17 17 18 18 18 18 17 15 14 15 16 17 17 17 16 16 16 14 5
3 7 5 7 10 11 13 14 15 15 15 15 14 14 15 12 12 9 10 13 13 13 13 12 15 16 16 16 16 16 16 15 16 17 17 18 18 17 18 18 15 14 15 15 17 17 16 14 15 15 8 6
1 4 5 6 8 11 12 13 14 15 14 14 13 14 14 10 8 8 5 13 9 13 13 12 12 14 14 15 15 16 16 16 16 18 17 17 18 17 16 18 16 15 16 15 17 16 16 15 14 6 5 6
1 1 4 5 7 9 10 12 12 12 11 10 10 11 11 8 4 5 3 5 5 10 6 11 12 13 13 14 14 17 16 16 17 18 17 16 18 17 16 16 16 15 16 15 16 15 15 15 7 6 6 7
1 2 2 3 3 2 5 6 7 5 4 5 4 9 7 4 3 5 4 5 6 5 5 5 12 12 13 14 15 17 16 17 17 18 17 17 17 17 16 16 8 6 9 14 15 15 14 7 6 6 6 6
3 3 3 3 3 3 5 4 4 2 2 3 4 4 5 5 4 5 4 4 6 7 8 8 13 12 13 15 15 17 16 16 17 17 16 17 16 17 15 8 6 6 6 6 11 9 6 6 7 7 7 6
3 3 3 3 4 3 3 3 2 2 2 3 4 4 4 5 4 4 4 6 8 8 4 5 9 12 10 11 12 17 10 12 14 16 14 15 16 9 5 6 6 6 6 6 6 6 6 6 7 7 7 6
2 2 2 3 3 3 3 3 2 2 2 3 3 4 4 5 4 4 4 4 5 6 5 5 5 6 5 6 6 10 7 7 7 7 6 5 7 5 5 5 5 5 6 5 4 5 5 5 6 6 6 6
0 2 2 2 3 4 3 5 2 2 3 3 2 4 4 5 5 5 4 4 5 5 5 5 5 6 6 6 5 6 6 6 6 6 6 6 6 6 6 5 4 4 6 5 5 5 5 6 6 6 6 6
1 2 1 3 1 2 3 6 2 3 2 2 2 3 4 5 6 5 4 5 4 5 5 5 5 5 5 5 5 6 6 6 7 6 6 6 6 6 6 6 5 4 6 4 4 4 5 6 6 6 6 6
1 2 1 1 2 1 2 3 2 3 1 1 3 3 4 3 5 5 4 5 5 5 4 5 5 6 6 6 6 6 6 6 6 6 6 5 5 6 6 6 4 5 5 5 3 4 4 5 5 6 6 6
1 2 1 1 1 2 3 2 2 2 1 2 3 3 3 4 4 4 4 4 4 5 4 5 5 6 6 6 5 5 5 5 6 6 6 6 6 6 6 6 5 5 5 6 3 4 4 4 4 4 5 5
1 1 2 1 2 1 2 2 3 1 1 2 3 4 4 4 3 5 4 4 5 4 5 4 4 4 5 6 5 6 5 5 5 6 6 6 5 5 5 5 6 5 5 6 4 4 3 3 4 3 4 4
2 1 1 1 3 1 2 3 4 1 1 2 3 3 3 4 3 4 3 4 4 5 5 4 4 4 4 4 4 5 5 4 5 5 5 6 6 6 6 6 6 6 6 6 6 4 4 3 3 3 4 4
1 2 1 2 3 1 1 4 2 1 1 1 1 1 2 3 3 4 4 4 4 4 5 3 4 3 3 3 4 5 5 5 5 5 4 6 6 6 6 7 6 6 7 6 6 5 4 3 3 3 4 4
2 2 1 3 2 0 1 4 1 1 2 1 2 1 1 3 4 4 4 5 4 4 5 4 4 3 3 4 5 6 5 5 6 5 6 7 7 6 7 7 7 5 6 6 6 5 5 3 3 2 4 3
3 1 2 1 2 1 1 2 2 0 1 1 2 2 1 2 3 3 3 4 4 5 5 4 4 4 4 5 5 6 5 6 6 6 6 7 6 6 7 7 7 7 6 6 6 5 4 6 2 1 3 2
4 2 2 4 1 0 1 3 2 1 0 0 1 1 0 2 1 3 2 4 4 5 4 5 4 4 5 5 5 6 5 6 6 5 5 6 6 6 6 6 7 7 6 6 7 6 6 6 5 1 2 1
2 3 4 4 1 2 0 2 3 2 0 1 1 0 1 2 2 2 2 3 3 5 4 4 5 5 5 5 5 6 5 5 5 4 4 5 5 6 6 6 7 7 6 6 7 7 7 7 6 4 1 0
3 3 3 2 1 1 0 2 3 2 1 0 1 0 1 2 2 1 2 3 4 4 4 5 5 5 4 4 5 6 5 5 4 3 4 5 5 4 6 6 7 6 5 6 7 8 8 7 7 4 2 1
3 4 4 3 3 3 3 4 3 3 1 2 1 0 2 1 3 1 2 3 3 4 4 4 4 4 3 4 5 5 5 4 3 3 4 6 4 5 5 6 6 7 5 6 8 8 8 9 8 4 3 1
4 4 3 3 3 3 5 4 4 3 1 2 1 2 1 1 2 1 1 2 3 4 4 4 5 4 4 3 4 5 5 3 3 3 3 4 6 5 6 6 7 5 5 8 8 9 10 8 7 5 3 2
5 5 4 4 4 4 5 4 4 5 5 1 1 3 1 0 2 1 2 2 3 4 3 4 5 4 4 3 4 4 4 3 3 3 4 4 5 8 6 5 7 4 5 7 9 9 7 8 8 5 4 3
2 1 1 1 3 3 2 5 4 4 4 4 3 2 1 0 2 0 1 2 2 3 4 3 4 5 4 3 4 4 5 4 4 3 2 4 3 5 6 6 5 4 5 8 6 5 8 9 8 6 4 4
1 1 1 0 1 2 3 4 1 2 2 5 3 3 1 1 2 1 2 2 1 3 3 3 4 4 4 4 4 4 5 5 3 2 3 3 4 3 5 4 5 4 5 4 5 8 8 6 2 3 2 2
3 1 1 1 1 2 3 3 3 1 0 3 3 4 4 3 2 2 3 2 1 2 3 3 3 4 5 4 4 4 5 4 4 2 3 3 4 7 3 5 5 4 3 2 5 8 4 4 5 2 2 2
1 0 0 1 1 2 3 4 3 2 0 1 2 3 4 4 4 3 3 2 1 3 3 2 3 3 4 4 4 4 5 4 4 3 3 3 3 3 5 3 3 3 5 1 4 6 1 4 3 7 0 4
3 1 0 2 3 3 3 4 4 4 5 4 5 4 4 5 4 4 4 3 3 3 3 3 3 3 3 4 5 5 5 4 4 3 2 2 3 3 3 5 3 2 4 1 0 1 3 5 3 2 4 10
3 3 2 2 3 3 5 5 3 6 7 5 5 7 4 4 5 4 4 3 3 3 2 3 3 2 3 4 4 4 4 4 5 3 3 2 2 4 4 4 4 5 4 3 2 3 3 2 5 4 4 3
4 3 3 4 4 4 4 4 4 2 1 4 3 5 4 5 5 4 4 4 3 1 1 2 3 2 2 3 4 4 4 4 4 3 1 1 2 3 4 5 5 5 5 5 2 2 3 4 3 1 2 4
Wind_Direction
38 36 33 29 28 28 26 26 25 23 21 19 18 18 16 8 6 12 17 15 13 10 10 12 6 1 360 3 3 3 359 360 0 1 -0 1 1 1 359 357 355 355 360 2 1 1 358 356 359 3 10 354
48 29 33 29 27 27 26 24 23 22 21 20 19 13 0 352 4 13 19 11 5 2 6 8 7 0 0 0 359 359 356 355 356 358 357 360 359 357 355 352 351 354 359 0 1 359 356 354 4 4 4 345
57 24 31 30 27 26 26 24 25 24 23 18 13 355 344 351 3 2 14 8 1 353 358 355 3 354 353 352 353 354 352 353 354 356 357 358 357 354 354 352 351 356 358 356 359 357 357 359 7 2 356 350
15 15 20 39 32 29 29 24 26 23 17 11 358 350 343 4 4 339 2 7 355 349 350 349 354 346 344 349 351 353 351 353 354 356 354 356 356 352 354 353 354 358 356 353 357 357 1 4 5 353 354 358
358 333 27 28 29 29 31 24 19 18 6 8 353 349 340 356 4 329 335 22 344 345 330 345 349 344 345 351 353 356 352 357 355 354 353 354 354 352 355 356 353 357 354 353 356 356 6 2 360 349 2 9
11 330 38 41 19 42 41 21 15 13 352 11 354 343 331 331 357 330 323 21 335 330 317 333 347 348 355 356 358 357 355 359 356 353 352 353 354 353 356 357 347 349 352 351 355 354 4 357 350 349 5 9
14 349 30 27 13 17 48 20 359 357 352 16 354 335 328 337 333 326 330 5 341 334 336 350 352 352 1 359 0 359 357 2 356 353 355 354 354 354 354 355 348 342 348 338 347 349 2 352 353 356 360 9
25 336 28 40 357 10 37 14 317 343 11 30 355 339 334 329 316 328 335 358 348 338 345 342 347 346 355 355 358 359 350 0 352 351 349 352 354 350 348 349 347 341 333 334 335 354 357 355 353 355 357 3
55 322 38 42 21 346 34 319 311 10 3 19 12 335 336 324 319 333 347 0 346 333 342 347 345 334 348 351 353 356 349 356 344 339 340 345 350 344 342 343 341 335 326 328 343 356 354 357 354 353 353 357
4 40 13 34 35 329 25 296 344 32 353 10 359 348 345 333 331 344 353 358 346 336 350 346 351 336 343 349 353 355 343 352 341 337 338 349 349 339 338 329 325 330 316 330 342 353 356 0 353 351 349 352
350 58 31 28 343 295 11 303 14 355 1 354 344 27 349 347 333 344 348 353 342 337 350 338 345 337 341 344 353 352 343 349 345 333 336 347 346 332 332 326 320 335 319 335 340 357 3 2 351 347 348 347
326 66 22 22 333 327 344 293 16 335 346 347 359 46 357 340 327 336 349 348 341 332 347 335 346 338 343 342 354 353 345 349 336 328 325 335 342 330 322 318 324 337 323 328 346 6 7 358 351 343 346 343
38 19 13 358 318 332 310 13 339 305 333 15 7 36 11 329 339 340 341 345 334 333 340 334 350 337 346 335 355 350 339 350 328 323 325 338 335 335 321 320 328 333 326 321 344 21 1 353 342 337 341 334
31 4 333 3 286 319 333 13 296 290 17 341 51 22 2 322 348 329 327 340 334 342 329 331 340 335 342 335 355 344 334 341 328 315 324 330 324 318 314 312 316 328 327 322 336 11 351 345 334 333 335 325
332 303 289 339 295 59 0 313 288 351 6 336 66 37 0 323 344 322 329 353 340 334 312 324 330 321 334 329 350 334 318 329 317 306 315 329 324 319 314 315 314 328 331 322 328 340 344 335 328 331 327 315
295 277 257 267 279 101 343 283 290 340 4 341 46 87 2 326 335 329 340 352 329 315 301 310 304 315 328 330 349 325 315 334 323 315 331 333 327 324 324 320 321 330 326 319 316 327 326 333 310 336 325 325
256 252 246 244 250 117 232 258 312 14 324 29 333 53 59 345 336 340 350 331 315 301 296 308 304 330 333 359 345 326 321 344 324 332 348 340 334 331 331 319 328 327 324 319 318 326 312 314 303 331 323 324
295 268 284 260 264 150 275 306 328 352 358 13 317 305 111 14 339 328 336 322 311 305 302 313 323 338 356 0 344 322 331 342 328 344 348 336 332 330 328 324 321 325 319 308 305 309 307 299 274 311 296 321
242 276 306 300 263 0 64 305 269 357 272 311 293 312 80 76 338 316 334 317 318 305 313 330 337 345 4 353 335 328 327 329 328 351 336 328 326 320 321 321 315 312 312 313 314 307 298 291 271 250 253 341
251 225 218 240 132 286 69 303 287 251 179 247 304 0 304 80 327 307 334 317 324 310 319 335 341 338 351 349 329 316 318 322 329 334 327 317 314 319 320 319 308 308 316 314 310 305 295 275 271 236 198 26
226 259 261 229 223 172 222 258 285 250 167 306 230 64 25 47 318 294 352 320 321 317 325 328 326 335 332 347 322 305 311 310 315 338 333 316 316 322 312 310 299 302 305 311 304 299 287 275 265 230 168 165
218 223 210 209 212 199 198 225 239 267 187 216 183 137 65 19 296 314 347 322 316 318 317 317 308 318 332 332 310 306 300 300 323 359 341 314 314 326 312 299 300 291 309 311 302 290 281 274 257 212 163 175
214 227 230 234 236 214 209 224 222 217 261 203 196 104 69 250 304 351 334 335 317 328 320 323 316 314 318 305 299 302 296 313 336 335 318 317 317 314 290 285 283 295 329 311 299 288 275 264 258 188 161 179
208 202 201 218 209 220 226 222 209 185 203 157 180 118 189 179 283 332 341 318 325 300 311 321 296 303 292 310 302 296 300 306 317 315 322 325 327 312 304 301 292 338 336 302 291 290 296 290 271 178 166 187
201 211 290 251 224 241 221 193 188 180 187 169 163 124 170 207 266 16 301 287 315 308 300 293 302 307 299 309 304 304 298 294 284 295 312 318 316 308 317 312 307 341 346 306 309 295 301 303 278 186 159 192
210 198 184 137 285 317 325 328 292 248 197 179 131 148 168 219 220 186 258 265 287 294 303 301 305 299 302 309 299 297 283 287 297 332 353 334 320 320 313 298 309 341 11 344 351 322 321 298 336 101 143 250
209 209 82 89 309 352 320 315 295 236 175 112 151 169 175 200 201 224 238 228 228 257 277 275 298 304 312 304 299 301 301 303 316 340 351 343 334 317 310 291 300 353 31 275 309 274 287 306 358 313 344 288
184 83 77 36 299 269 252 252 298 322 256 175 196 210 183 195 188 204 237 237 222 251 255 260 273 281 297 310 308 303 301 300 303 357 343 350 333 318 318 337 298 12 322 60 353 352 0 274 305 308 0 340
162 163 205 215 226 248 288 290 265 267 255 209 207 215 187 211 177 199 217 225 226 229 260 261 249 255 283 295 299 289 282 297 310 319 305 4 348 330 302 305 301 309 324 322 26 184 352 337 340 274 303 343
155 181 207 222 213 211 205 238 220 240 239 218 222 227 195 169 177 197 208 215 230 225 244 265 271 246 243 266 283 304 303 310 306 328 350 3 3 307 309 307 298 290 312 290 211 207 208 192 218 286 307 4
160 199 210 216 220 230 257 266 271 248 183 180 211 139 166 190 184 193 194 219 202 238 310 310 308 335 330 314 304 298 316 292 281 280 320 10 328 321 318 307 288 284 296 331 273 199 249 266 264 243 322 270